User: anonymous   Login
Location: Cimarron National Grasslands
(37.1250°N, 101.7500°W)
Time: 02:07:58
(UTC-05:00)
Language:

Ariane Rocket - Orbit

View from above orbital plane
View from above orbital plane
View from above satellite
View from above satellite

Ground track
Ground track

The orbit data is extracted from the following two-line orbital elements,

1 23561U 95021B   16145.54059021  .00000055  00000-0  33578-4 0  9997
2 23561  98.7689 132.2835 0006449 338.9877 128.1490 14.37739476105404
Epoch (UTC): 24 May 2016 12:58:26
Eccentricity: 0.0006449
inclination: 98.7689°
perigee height: 761 km
apogee height: 770 km
right ascension of ascending node: 132.2835°
argument of perigee: 338.9877°
revolutions per day: 14.37739476
mean anomaly at epoch: 128.1490°
orbit number at epoch: 10540

The dashed part of the orbit path shows where the satellite is in the earth's shadow,  

DLR